Weather History for Belize, Belize

Change the Weather History Date:

Monday, November 28, 2011

  Actual Average Record
Temperature  
Mean Temperature 71 °F -  
Max Temperature 76 °F 82 °F 87 °F (1997)
Min Temperature 66 °F 69 °F 63 °F (2013)
Cooling Degree Days 6    
Growing Degree Days 21 (Base 50)    
Moisture  
Dew Point 65 °F    
Average Humidity 77    
Maximum Humidity 94    
Minimum Humidity 55    
Precipitation  
Precipitation 0.01 in 0.23 in - ()
Sea Level Pressure  
Sea Level Pressure 30.06 in    
Wind  
Wind Speed 10 mph ()    
Max Wind Speed 18 mph    
Max Gust Speed 30 mph    
Visibility 8.2 miles    
Events Rain    
Averages and records for this station are not official NWS values.
T = Trace of Precipitation, MM = Missing Value Source: Averaged Metar Reports

Daily Weather History Graph

Daily Weather History Graph

Search for Another Location

Airport:

Trip Planner

Search our weather history database for the weather conditions in past years. The results will help you decide how hot, cold, wet, or windy it might be!

Date:

Astronomy

Nov. 28, 2011 Rise Set
Actual Time 6:05 AM CST 5:16 PM CST
Civil Twilight 5:42 AM CST 5:39 PM CST
Nautical Twilight 5:15 AM CST 6:06 PM CST
Astronomical Twilight 4:49 AM CST 6:33 PM CST
Moon 9:18 AM CST (11/28) 8:55 PM CST (11/28)
Length of Visible Light 11h 57m
Length of Day
11h 11m
Waxing Crescent, 16% of the Moon is Illuminated
Nov 28
Waxing Crescent
Dec 2
First Quarter
Dec 10
Full
Dec 17
Last Quarter
Dec 24
New

Hourly Weather History & Observations

Time (CST) Temp. Dew Point Humidity Pressure Visibility Wind Dir Wind Speed Gust Speed Precip Events Conditions
12:00 AM 74 °F 72 °F 92% 29.99 in 12 mi NW 10.4 mph - -  
12:00 AM 73.4 °F 71.6 °F 94% 29.98 in - North - - N/A   Mostly Cloudy
3:00 AM 71 °F 66 °F 79% 30.00 in 12 mi NNW 16.1 mph - -   Partly Cloudy
3:00 AM 71.6 °F 66.2 °F 83% 29.98 in - North - - N/A   Mostly Cloudy
6:00 AM 68 °F 66 °F 93% 30.05 in 12 mi WNW 6.9 mph - - Rain Light Rain
6:00 AM 68.0 °F 66.2 °F 94% 30.04 in 6.2 mi WNW 6.9 mph - N/A   Mostly Cloudy
7:00 AM 68.0 °F 66.2 °F 94% 30.06 in 6.2 mi WNW 9.2 mph - N/A   Mostly Cloudy
8:00 AM 71.6 °F 66.2 °F 83% 30.09 in 6.2 mi WNW 13.8 mph - N/A   Mostly Cloudy
9:00 AM 73 °F 65 °F 70% 30.11 in 12 mi NW 15.0 mph - -   Mostly Cloudy
9:00 AM 73.4 °F 66.2 °F 78% 30.11 in 6.2 mi NW 15.0 mph - N/A   Mostly Cloudy
10:00 AM 75.2 °F 66.2 °F 73% 30.11 in 6.2 mi NW 16.1 mph 27.6 mph N/A   Mostly Cloudy
11:00 AM 77.0 °F 64.4 °F 65% 30.10 in 6.2 mi NW 18.4 mph 29.9 mph N/A   Mostly Cloudy
12:00 PM 76 °F 63 °F 55% 30.09 in 12 mi NW 16.1 mph - -  
12:00 PM 75.2 °F 62.6 °F 65% 30.08 in 6.2 mi NW 16.1 mph 27.6 mph N/A   Mostly Cloudy
1:00 PM 75.2 °F 64.4 °F 69% 30.06 in 6.2 mi NNW 13.8 mph 23.0 mph N/A   Mostly Cloudy
2:00 PM 75.2 °F 64.4 °F 69% 30.04 in 6.2 mi NW 10.4 mph - N/A   Mostly Cloudy
3:00 PM 74 °F 62 °F 56% 30.05 in 12 mi NW 13.8 mph - -   Mostly Cloudy
3:00 PM 73.4 °F 60.8 °F 65% 30.05 in 6.2 mi NW 13.8 mph - N/A   Mostly Cloudy
4:00 PM 73.4 °F 62.6 °F 69% 30.05 in 6.2 mi WNW 8.1 mph - N/A   Mostly Cloudy
5:00 PM 71.6 °F 64.4 °F 78% 30.06 in 6.2 mi WNW 6.9 mph - N/A   Mostly Cloudy
6:00 PM 71 °F 62 °F 67% 30.08 in 12 mi WNW 6.9 mph - -   Partly Cloudy
6:00 PM 69.8 °F 62.6 °F 78% 30.07 in 6.2 mi WNW 6.9 mph - N/A   Mostly Cloudy
7:00 PM 68.0 °F 60.8 °F 78% 30.09 in 6.2 mi WNW 6.9 mph - N/A   Mostly Cloudy
9:00 PM 66 °F 62 °F 84% 30.14 in 12 mi West 5.8 mph - -   Mostly Cloudy
9:00 PM 66.2 °F 62.6 °F 88% 30.13 in 6.2 mi West 5.8 mph - N/A   Mostly Cloudy